Regional Weather Roundup
Issued by NWS

Home | Current Version | Previous Version | Text Only | Print | Product List | Glossary On
Versions: 1 2 3 4 5 6 7 8 9 10 11 12 13 14 15 16 17 18 19 20 21 22 23 24 25 26 27 28 29 30 31 32 33 34 35 36 37 38 39 40 41 42 43 44 45 46 47 48 49 50
000
ASUS42 KFFC 241310
RWRGA
WEATHER ROUNDUP FOR GEORGIA
NATIONAL WEATHER SERVICE PEACHTREE CITY GA
800 AM EST FRI FEB 24 2017

NOTE: "FAIR" INDICATES FEW OR NO CLOUDS BELOW 12,000 FEET WITH NO
SIGNIFICANT WEATHER AND/OR OBSTRUCTIONS TO VISIBILITY.

* = USE WITH CAUTION. THE STATIONS MARKED WITH AN ASTERISK MAY NOT
REPORT WEATHER SUCH AS PRECIPITATION, FOG, OR THUNDER AND ARE NOT
QUALITY CONTROLLED BY NWS.

THE REMARK "TC" DENOTES TEMPERATURE READING IN DEGREES CELSIUS.

GAZ001>058-241400-
NORTH GEORGIA

CITY           SKY/WX    TMP DP  RH WIND       PRES   REMARKS
ATLANTA        PTCLDY    57  54  89 CALM      29.91R
ATHENS         PTCLDY    52  51  97 CALM      29.93R
CHAMBLEE       CLEAR     54  52  93 CALM      29.91S
PEACHTREE CITY CLEAR     49  48  97 CALM      29.91R
ROME           CLEAR     51  47  86 CALM      29.88S
WEST ATLANTA   CLEAR     50  49  96 CALM      29.91R
GAINESVILLE    PTCLDY    54  51  90 E5        29.94S
CARTERSVILLE   CLEAR     50  49  96 CALM      29.90S


CITY           SKY/WX    TMP DP  RH WIND       PRES   REMARKS
DALTON*        CLEAR     50  50 100 CALM      29.89S
LAWRENCEVILLE* PTCLDY    48  46  93 CALM      29.92S
MARIETTA       PTCLDY    52  50  93 CALM      29.90S
KENNESAW*      CLEAR     52  50  93 CALM      29.92S
CANTON*        CLEAR     54  46  76 CALM      29.92S
$$

GAZ059>098-102>109-241400-
CENTRAL GEORGIA

CITY           SKY/WX    TMP DP  RH WIND       PRES   REMARKS
AUGUSTA-BUSH   MOSUNNY   54  53  97 CALM      29.90S
AUGUSTA-DANIEL SUNNY     62  56  80 E3        29.91R
COLUMBUS       CLEAR     54  52  93 CALM      29.89R
MACON          PTCLDY    51  49  92 W5        29.91R FOG
ROBINS AFB     PTCLDY    53  52  97 NW6       29.91R


CITY           SKY/WX    TMP DP  RH WIND       PRES   REMARKS
LAGRANGE*      CLEAR     52  52 100 CALM      29.90R
SYLVANIA*      SUNNY    N/A N/A N/A CALM      29.90R FOG
MILLEDGEVILLE* MOSUNNY   52  52 100 CALM      29.92R FOG
$$

GAZ099>101-110>166-241400-
SOUTH GEORGIA

CITY           SKY/WX    TMP DP  RH WIND       PRES   REMARKS
SAVANNAH       SUNNY     62  58  86 N3        29.88R
VALDOSTA       SUNNY     59  58  96 CALM      29.87R
ALMA           SUNNY     59  59 100 CALM      29.88R FOG
ST SIMONS      SUNNY     65  62  90 N8        29.85R
FT STEWART     SUNNY     60  58  95 CALM      29.85R
ALBANY         PTCLDY    55  54  96 NW5       29.90R
HUNTER AFB     SUNNY     61  61 100 CALM      29.85R
MOODY AFB      SUNNY     59  59  99 CALM      29.86R
BRUNSWICK      SUNNY     61  61 100 N3        29.87R


CITY           SKY/WX    TMP DP  RH WIND       PRES   REMARKS
BAINBRIDGE*    PTCLDY    59  57  94 NE3       29.87R
MOULTRIE*      MOSUNNY   59  59 100 CALM      29.89R FOG
VIDALIA*       FOG       57  57 100 NE3       29.89R VSB 1
WAYCROSS*      SUNNY     62  62 100 CALM      29.88R FOG
DOUGLAS*       MOSUNNY   59  57  94 NE3       29.89S
$$



USA.gov is the U.S. government's official web portal to all federal, state and local government web resources and services.